BREEZE-KM R/B, 40556

Orbit data source: Space-Track

BREEZE-KM R/B, 40556 is space debris in LEO originally from a launch on Tue, 31 Mar 2015 UTC launched from the Plesetsk Missile And Space Complex (PKMTR). Debris objects in space refer to the collection of defunct objects orbiting the Earth. Examples of debris include non-operational satellites, rocket bodies, and fragments generated from explosions, collisions, or faulty payload assembly.

Loading next visibility...
BREEZE-KM R/B details
Identifier
40556, 2015-020E
Orbit
LEO
Last TLE update13 hours ago
Origin
Flag of CISVVKO VKS (CIS)
ManufacturerKhrunichev
MissionSpacecraft
Bus & MotorBRIZ, S5.92
Mass2,370 kg wet, 2,370 kg dry
Launch date (UTC)
2015-03-31 (10 years ago)
Launch vehicleUnknown
Launch site
Plesetsk Missile And Space Complex (PKMTR)
Object type
Payload
Rocket body
Debris
Shape & HBRHex Cyl + 1 Rod, 4.1 m
Radar Cross Section10.190 m², Large (>1 m²)

Expand to show TLE details & history

TLE from 13 hours ago
0 BREEZE-KM R/B
1 40556U 15020E   24336.96574981  .00000040  00000-0  12159-3 0  9990
2 40556  82.4906 221.8341 0214077 283.9295  73.8081 12.80548982452196
Epoch: 2024-12-01T23:10Z
Definitive object data (Epoch: 2024-12-01T23:10:40.783Z)
Latitude-0.00005°
Longitude162.86778°
Altitude1,299.232 km
Speed7.227 km/s
True Right ascension14h 47m 20s
True Declination0° 00' 00"
Sunlit
Object was in daylight at TLE epoch
Visualization TLE readout
Latitude-60.47116°
Longitude149.12368°
Altitude1,203.555 km
Speed7.326 km/s
Apparent Right ascension18h 40m 00s
Apparent Declination-66° 57' 23"
Sunlit
Object is in daylight
Visualization observer readout
Local Sidereal Time09:46:26
Azimuth151.924° SSE
Elevation-52.818°
Doppler factor1
Orbital elements
Apogee altitude1,501.714 km
Perigee altitude1,171.406 km
Semi-major axis7,714.697 km
Eccentricity0.0214077
Inclination82.4906°
RAAN221.8341°
Arg. of periapsis283.9295°
True anomaly76.18096°
Mean anomaly73.8081°
Eccentric anomaly74.99284°
Mean motion3.20306 °/min
BSTAR0.00012159
Orbital period112.39 mins
Loading maneuver chart data...
Loading historical data...
Loading historical data...
Loading historical data...
Loading historical data...
Loading historical data...
Loading historical data...
Loading historical data...

BREEZE-KM R/B Visibility forecast

Observer location: undefined°, undefined

Span
Click to sort rows by Start time (UTC) header in descending order
Start Az.
Max El. time (UTC)
Max El. Az.
Max El.
End time (UTC)
End Az.
13 mins2024-12-02 16:09:37.538Z142.601° SSE2024-12-02 16:15:37.538Z88.266° E29.811°2024-12-02 16:22:37.538Z26.509° NE
14 mins2024-12-02 18:02:37.538Z215.988° SW2024-12-02 18:08:37.538Z278.267° WNW36.83°2024-12-02 18:16:37.538Z356.465° N
5 mins2024-12-03 02:05:37.538Z43.43° NE2024-12-03 02:07:37.538Z57.569° ENE12.21°2024-12-03 02:10:37.538Z78.514° E
15 mins2024-12-03 03:55:37.538Z0.098° NNE2024-12-03 04:02:37.538Z69.398° E42.035°2024-12-03 04:10:37.538Z159.304° S
11 mins2024-12-03 05:50:37.538Z320.913° NNW2024-12-03 05:55:37.538Z277.423° WNW24.393°2024-12-03 06:01:37.538Z228.534° WSW
|